GFSNGP_prec_cthk_057.txt.gz
RH
29 27 32 40 43 46 52 47 52 43 40 33 37 39 38 38 36 37 42 47 50 52 58 71 68 65 60 57 60 63 61 60 60 65 67 60 59 66 69 75 72 72 68 64
29 28 33 34 38 35 44 41 38 35 35 37 37 38 41 42 42 42 47 51 53 57 61 53 52 52 50 53 58 60 60 60 63 69 62 69 73 80 77 75 72 66 64 61
39 34 35 40 30 32 27 28 36 31 30 32 35 35 35 35 36 40 43 43 45 49 50 45 46 48 51 54 55 57 62 65 65 68 76 83 86 80 75 66 59 58 57 54
56 50 48 33 30 28 28 29 29 30 30 31 33 34 34 32 31 32 33 39 43 45 47 50 52 54 54 55 58 62 65 65 75 89 92 85 75 65 56 52 48 48 49 49
60 59 43 35 32 30 30 33 29 29 31 30 30 32 36 34 31 33 36 39 43 45 47 49 52 54 56 60 64 64 66 80 92 90 78 68 58 53 52 50 44 41 36 38
61 58 52 39 34 32 32 40 33 32 34 33 32 38 38 36 36 38 40 41 41 43 46 49 55 60 65 67 69 77 85 94 83 77 66 60 56 52 48 45 42 37 36 34
60 57 46 38 36 37 44 44 38 35 34 30 32 34 37 38 39 41 40 41 44 49 53 58 62 65 69 76 84 93 90 83 76 67 57 52 48 45 44 40 39 37 34 37
61 62 54 38 36 39 42 37 35 34 33 33 36 38 40 40 41 43 46 48 52 56 59 63 67 73 82 90 93 87 80 70 61 52 49 43 42 36 34 34 33 33 34 36
46 47 38 35 34 33 34 34 35 34 34 36 38 39 40 41 45 49 54 58 60 64 67 72 80 88 94 88 81 71 60 52 46 42 42 43 39 34 31 29 30 34 36 38
47 42 41 38 35 35 36 37 37 36 35 35 41 44 46 47 53 57 61 65 67 71 78 85 91 87 78 69 59 53 48 46 43 42 40 36 33 31 32 32 33 37 39 42
47 46 43 42 41 41 40 39 37 37 39 42 46 48 52 56 61 65 67 70 79 84 86 83 78 72 62 58 54 49 46 42 39 35 33 30 31 34 37 36 40 39 40 46
46 42 42 46 46 44 42 43 42 42 44 48 54 57 61 64 68 72 79 82 81 81 79 72 65 58 57 52 48 42 37 33 31 32 31 32 37 39 40 37 40 41 43 46
43 43 44 48 49 48 47 45 46 49 52 56 60 64 70 75 78 78 76 78 84 80 70 61 55 47 45 43 39 36 34 33 35 37 38 42 47 48 44 37 44 45 48 48
48 48 49 48 47 47 48 51 55 58 62 65 69 74 76 76 75 76 78 76 67 58 50 44 39 35 34 33 33 34 33 36 38 37 41 47 53 56 54 51 55 51 56 56
51 48 47 50 52 57 60 60 62 65 67 73 74 74 71 72 70 69 65 55 48 42 34 28 26 23 24 25 24 26 30 33 38 44 50 59 60 70 66 62 75 64 62 62
55 55 56 59 66 66 65 66 67 72 74 72 70 68 64 62 59 54 47 40 33 27 24 24 24 27 30 30 30 27 27 31 36 40 40 43 55 65 76 67 78 78 62 68
56 61 66 70 71 70 71 72 74 73 72 66 64 64 61 55 47 40 35 29 24 23 25 26 28 30 27 26 27 29 37 39 38 34 31 34 36 53 69 75 84 79 61 67
65 70 74 72 71 74 75 75 75 70 67 66 62 56 50 42 37 31 26 23 24 24 26 27 26 26 28 30 36 38 35 33 32 30 29 28 46 51 70 76 74 67 65 75
75 76 74 73 75 76 78 75 71 68 65 59 54 47 40 35 29 24 22 20 21 25 26 29 29 28 34 36 30 25 22 21 21 22 26 36 48 69 70 66 67 74 77 79
74 74 75 78 81 76 74 72 69 65 60 52 45 40 35 28 22 20 21 24 28 31 29 30 32 35 32 28 25 27 30 33 35 38 47 49 66 71 73 76 77 79 82 84
80 81 84 80 76 76 74 71 67 59 50 47 40 31 24 23 22 24 25 29 33 32 34 33 34 31 27 24 24 26 30 35 43 47 56 56 61 65 68 71 76 80 85 85
81 80 79 78 78 76 71 65 58 53 44 36 31 27 25 25 27 30 34 36 35 35 33 33 29 26 24 24 25 28 31 38 43 47 54 57 60 68 69 75 80 83 84 86
84 83 83 81 76 72 66 59 54 44 40 37 32 29 30 32 36 37 37 38 37 34 32 28 25 25 25 25 27 30 33 36 41 50 57 61 67 69 75 79 84 89 90 91
87 87 83 79 73 67 62 55 50 46 41 35 34 35 39 40 41 40 37 38 35 31 28 27 26 25 27 28 30 33 35 37 42 47 54 61 68 72 79 82 89 90 92 92
87 84 79 72 70 64 59 54 51 44 39 40 43 45 45 44 43 40 39 38 34 31 30 29 29 30 32 34 34 36 39 42 46 50 54 58 65 71 79 83 89 90 94 96
82 77 73 67 65 62 58 52 44 43 47 52 52 48 49 47 43 41 39 35 33 33 32 32 34 35 37 38 38 41 43 47 51 55 60 64 68 70 73 77 84 84 87 90
76 72 69 69 68 63 54 50 52 56 58 58 55 50 48 45 43 38 36 35 33 34 35 35 37 38 39 39 42 45 48 52 56 61 65 69 72 75 79 82 84 84 84 84

GFSNGP_prec_cthk_060.txt.gz
RH
37 32 33 36 37 37 37 46 50 43 41 37 35 33 32 38 40 38 41 47 50 51 62 62 72 76 82 82 79 75 67 60 59 59 59 66 70 64 62 80 85 76 65 60
38 36 33 32 31 34 34 41 42 44 43 40 34 33 34 37 38 38 40 45 50 63 62 70 74 76 76 76 62 54 54 56 58 62 66 66 66 77 89 83 71 63 62 55
39 33 30 37 26 27 31 33 36 37 40 40 37 31 31 33 36 40 42 44 48 55 56 58 61 66 63 56 49 53 56 59 66 67 67 74 89 83 76 69 62 56 53 48
48 38 46 29 25 26 28 30 31 32 32 31 32 35 37 38 38 39 41 45 48 50 54 56 55 54 52 53 58 60 66 69 71 74 83 89 79 75 63 59 53 48 42 40
54 57 47 37 32 31 33 36 36 35 34 35 36 35 38 37 36 36 38 39 41 45 46 48 48 50 54 59 63 68 68 69 78 86 85 80 73 63 56 51 45 41 36 32
61 62 59 35 29 31 35 44 37 37 38 38 38 44 43 40 38 35 37 39 42 45 45 45 51 57 62 66 67 69 73 80 92 83 80 73 60 52 49 42 40 39 34 33
59 54 47 34 32 34 40 39 40 41 41 40 41 37 34 34 34 36 38 41 43 44 48 54 59 63 66 70 73 79 88 93 85 78 67 55 47 45 42 40 34 31 28 30
59 56 51 33 32 35 38 42 43 39 36 34 32 34 36 36 37 38 40 44 48 53 58 63 66 68 73 78 89 95 89 81 69 55 46 44 45 41 35 29 29 29 28 30
41 40 34 33 32 35 35 34 35 35 36 34 35 36 36 37 40 44 48 53 57 62 66 69 74 83 91 89 88 80 68 55 51 49 42 35 30 28 26 31 31 32 32 34
39 38 38 38 37 36 35 35 36 37 39 37 36 38 40 42 47 52 55 59 63 68 73 78 84 81 76 72 65 57 52 52 44 33 27 30 28 26 30 34 36 39 42 39
49 47 44 43 39 38 38 39 40 40 37 38 39 43 47 52 56 59 62 66 73 78 81 76 72 68 66 62 57 51 42 32 28 28 30 29 30 34 37 36 45 53 52 45
49 43 42 45 44 43 42 44 44 42 42 42 45 49 54 59 62 66 73 78 79 76 71 71 69 63 55 44 38 31 27 27 29 33 36 36 39 40 44 50 53 59 60 61
51 48 46 47 47 48 49 49 48 46 45 49 55 60 61 65 69 77 79 75 74 73 70 63 53 43 37 31 26 26 26 26 28 32 34 36 41 49 50 42 50 58 68 72
55 53 56 53 53 55 54 53 50 50 56 61 64 65 68 74 75 74 72 72 68 63 55 44 36 29 23 20 20 19 20 22 24 23 25 30 34 37 40 42 47 47 68 72
65 61 60 60 60 58 56 55 58 63 68 71 71 74 74 74 71 70 68 64 55 45 36 30 26 22 22 22 21 20 19 19 20 25 31 35 34 33 32 34 33 43 54 77
75 71 67 64 62 61 61 63 68 72 72 70 72 71 70 69 67 61 53 47 39 32 29 26 23 21 20 19 18 18 21 24 26 26 26 28 25 24 23 29 38 48 65 75
78 79 73 68 65 65 70 75 75 74 74 72 68 65 64 61 56 51 46 38 32 29 25 21 20 19 18 18 21 23 24 23 24 24 24 24 25 25 28 34 53 66 65 70
81 80 76 69 68 75 80 81 79 76 72 68 67 64 60 56 52 45 38 34 28 23 20 20 20 20 22 24 25 25 26 28 28 30 31 34 36 38 44 59 68 73 72 76
84 78 74 76 81 83 82 80 80 76 72 67 63 61 58 52 44 38 31 24 21 21 22 22 24 26 26 25 25 25 25 26 26 29 33 38 43 51 54 66 77 78 78 79
81 80 82 84 83 84 85 84 77 71 69 67 64 60 54 44 36 29 24 23 24 25 26 27 27 26 25 25 25 26 25 24 24 27 31 36 41 46 53 61 67 70 74 78
86 86 87 89 86 83 78 75 74 73 70 67 64 53 43 39 33 27 26 27 28 30 30 29 27 26 26 27 27 24 22 23 25 28 32 35 39 43 49 53 57 62 68 72
90 89 90 89 83 82 82 79 76 73 72 65 53 49 42 35 30 28 31 33 33 34 31 29 28 28 29 28 25 23 23 25 28 31 34 36 39 43 48 54 62 67 73 79
92 90 85 85 85 84 81 79 78 77 67 61 55 45 38 33 34 37 38 37 38 35 33 30 31 30 28 26 24 25 27 29 32 35 37 39 43 47 51 56 62 69 77 81
87 89 89 88 86 84 83 83 80 72 67 58 47 41 38 40 43 43 43 42 39 37 36 35 33 30 28 26 27 29 31 33 36 38 40 44 47 51 56 59 61 66 76 81
91 92 91 89 88 87 85 79 74 66 55 49 44 42 47 51 50 49 48 44 42 40 40 36 34 32 30 29 31 33 35 37 38 41 44 48 52 56 59 63 67 69 71 73
93 91 92 91 86 82 76 66 60 55 53 49 52 56 57 56 56 54 50 45 44 43 39 37 36 34 34 34 36 37 38 40 42 46 47 50 52 55 57 60 63 65 70 74
94 89 86 85 80 72 66 61 59 56 57 63 66 64 62 61 59 54 48 46 46 43 40 39 38 38 38 38 39 39 41 43 46 47 48 50 51 52 54 57 59 60 61 62

GFSNGP_prec_cthk_063.txt.gz
RH
48 48 46 40 45 49 45 44 44 41 42 38 38 36 33 31 28 33 37 40 43 47 54 59 68 68 76 79 80 87 87 88 80 69 61 56 58 67 69 67 77 83 78 70
48 42 40 41 36 38 43 40 40 35 35 36 34 36 36 33 31 35 38 41 42 47 51 58 70 74 71 74 87 90 88 76 66 60 59 63 67 69 70 86 84 76 68 60
45 41 40 45 35 35 33 33 33 36 30 32 33 35 38 35 32 35 39 40 42 45 52 56 59 61 78 85 85 76 66 60 59 62 67 67 69 78 89 79 73 66 60 52
56 46 49 24 20 20 23 22 23 24 26 29 31 34 37 38 34 37 40 42 43 44 51 54 57 67 66 60 59 57 58 61 65 71 72 77 85 90 79 71 66 59 47 38
57 54 38 30 26 28 30 32 34 35 36 35 37 37 38 37 37 35 36 38 41 44 47 51 53 52 53 51 54 59 65 68 72 75 83 93 86 83 74 62 51 42 36 36
62 55 54 33 30 32 31 37 35 36 40 40 38 38 40 39 38 39 37 36 37 42 48 52 51 50 51 57 63 68 70 75 80 84 95 87 80 68 55 44 39 35 28 26
65 66 54 31 26 23 30 32 36 41 42 42 44 42 41 39 35 34 35 38 41 44 47 48 50 55 61 66 68 71 75 82 91 90 84 73 57 48 41 37 29 23 24 24
72 65 49 28 29 29 29 31 36 42 44 45 42 38 34 34 35 37 39 40 42 44 48 52 57 61 64 67 74 79 87 90 85 74 61 48 41 34 26 22 23 24 24 26
61 47 30 25 24 25 28 34 40 39 37 35 35 35 35 35 37 40 42 45 48 52 57 60 62 66 76 80 84 83 79 71 64 51 42 35 26 24 23 26 27 27 30 33
55 42 33 30 29 28 29 30 32 33 34 33 34 35 36 39 40 44 49 53 56 59 62 67 75 80 80 79 75 74 67 56 44 36 28 25 25 26 28 31 35 38 42 46
57 45 36 35 36 35 34 34 34 36 37 37 37 38 41 43 48 54 58 62 64 67 76 81 78 76 74 73 66 59 46 35 29 25 24 24 24 27 31 32 41 48 50 54
53 42 40 41 43 42 39 38 40 40 42 43 44 45 47 52 59 63 67 69 76 80 79 76 74 75 70 60 47 37 31 26 22 20 20 20 20 19 24 26 28 32 35 42
48 49 47 49 51 49 47 46 46 47 49 49 52 52 56 62 67 71 74 76 78 76 75 76 71 59 50 40 31 26 21 18 17 16 15 16 18 20 22 19 26 23 22 25
55 57 61 57 56 56 56 55 55 55 56 57 54 56 64 71 76 77 77 74 76 76 70 61 53 45 35 30 24 19 16 15 15 16 18 19 19 21 25 24 20 15 12 23
66 62 63 65 63 65 65 63 62 62 61 60 61 66 74 78 79 76 75 74 69 63 56 51 43 35 29 23 18 16 16 17 19 19 19 21 22 23 24 25 25 25 26 34
74 78 79 75 77 78 76 73 69 66 65 66 71 79 80 79 75 73 69 64 59 55 51 42 34 27 21 17 17 18 20 20 20 20 21 22 26 28 29 31 33 41 43 56
77 83 81 86 87 85 82 77 74 73 74 78 80 80 77 73 70 66 62 58 55 50 42 32 25 21 19 19 21 21 20 19 20 20 22 26 29 30 32 39 41 47 57 63
85 83 81 83 88 91 88 82 78 79 83 82 78 73 71 69 65 62 60 57 51 39 31 26 22 21 23 23 22 21 20 20 20 21 23 23 25 28 30 34 44 51 53 63
79 83 86 90 96 92 85 84 87 87 82 76 72 72 70 67 65 62 59 48 41 35 29 25 25 26 26 25 24 22 22 21 22 23 23 24 25 28 30 33 36 39 50 60
89 94 96 95 91 88 89 89 87 83 78 75 73 72 70 67 65 58 52 45 40 32 27 29 29 28 28 26 26 25 24 25 25 25 26 26 28 30 32 35 37 39 42 48
97 97 90 90 91 91 91 90 85 77 76 77 73 71 71 66 62 58 50 44 35 31 32 32 31 31 30 29 28 27 29 29 28 28 27 28 30 32 35 37 40 42 45 50
96 96 95 94 95 93 87 81 81 83 77 75 75 73 70 69 64 55 47 38 34 36 36 35 35 33 32 31 30 32 33 32 31 30 30 31 33 34 37 39 43 46 50 53
96 98 97 95 89 86 87 87 83 79 80 82 78 75 74 67 56 48 39 40 41 42 41 41 38 37 36 35 35 36 35 34 32 32 33 34 35 38 41 43 46 49 53 56
97 97 92 89 90 92 89 84 84 86 86 83 82 76 66 58 50 46 48 49 49 48 48 44 42 41 40 38 38 38 38 36 34 36 36 37 39 42 44 45 47 49 52 56
93 94 95 96 95 90 88 88 90 91 87 80 74 68 58 53 54 56 57 57 55 54 50 48 46 45 45 42 41 41 40 37 37 38 38 39 41 43 43 45 45 47 50 52
97 96 97 97 94 93 95 96 88 82 77 70 65 60 59 62 64 64 63 61 58 55 54 51 48 47 47 45 44 42 40 40 40 41 39 41 42 44 44 46 47 49 51 52
97 97 98 98 97 94 90 84 80 73 68 65 65 67 68 67 69 68 64 62 60 58 54 49 49 49 48 47 44 43 43 42 43 42 42 42 43 43 45 47 48 50 54 56

GFSNGP_prec_cthk_069.txt.gz
RH
37 36 38 37 36 44 47 46 49 42 40 35 32 29 24 23 24 28 30 33 34 38 41 44 50 54 64 71 76 80 85 87 92 93 90 96 97 92 80 81 79 65 71 79
43 42 43 44 39 44 48 45 40 38 30 28 30 28 26 26 24 24 27 31 36 41 48 53 59 64 68 74 77 75 82 89 78 78 99 92 76 70 79 73 68 79 81 82
48 48 50 52 44 40 39 39 37 35 25 27 26 25 26 27 27 27 24 28 35 40 47 54 56 59 64 70 66 64 69 66 66 68 67 58 60 71 64 72 79 79 78 74
58 56 64 38 42 39 38 33 30 23 21 21 21 24 25 26 30 32 33 35 39 41 45 50 55 60 63 63 61 59 61 63 66 61 60 63 72 69 81 83 78 75 70 58
61 55 49 39 40 42 42 24 24 22 20 25 30 33 34 34 35 35 36 35 35 37 41 46 50 52 54 55 53 55 60 61 62 64 64 70 77 78 77 74 70 61 54 43
64 60 56 39 39 38 37 28 30 23 23 27 31 33 32 35 36 37 37 36 37 38 38 39 41 43 46 49 53 56 58 60 62 68 74 74 76 74 68 62 57 49 37 27
65 63 52 41 38 38 45 35 24 22 21 26 28 31 33 37 39 40 43 43 39 36 36 39 43 46 49 51 55 60 62 66 67 69 77 74 70 62 61 53 44 34 27 24
64 65 56 46 47 43 37 35 27 24 24 27 29 32 35 37 42 43 40 39 38 39 42 44 47 50 52 58 62 64 63 69 78 76 68 62 60 56 49 42 33 27 23 20
56 53 48 46 44 39 38 42 30 25 25 28 30 33 35 36 38 38 37 37 37 40 40 44 49 53 55 60 64 71 77 79 67 63 62 58 51 46 39 29 22 18 16 14
61 52 51 52 49 43 45 47 39 30 28 29 30 33 34 34 35 35 35 36 38 41 46 52 56 58 60 68 75 77 69 66 65 61 54 48 42 35 26 20 19 19 19 17
63 61 55 62 65 56 54 52 42 34 32 31 32 33 35 38 39 40 40 42 45 50 55 59 62 66 72 78 74 69 68 63 57 51 46 42 35 25 22 22 19 17 16 17
66 61 60 58 67 68 61 55 42 40 40 39 37 38 42 44 45 48 51 52 53 57 63 69 74 75 76 72 67 64 60 56 50 46 42 33 26 25 23 19 16 16 18 19
61 62 67 63 66 61 62 59 50 50 49 49 51 51 52 55 57 60 62 62 64 72 75 77 78 78 72 65 63 60 55 51 48 42 34 29 27 25 20 17 16 16 17 19
68 69 68 68 64 62 64 62 60 60 61 63 62 61 60 62 67 71 73 75 78 78 78 79 78 70 65 63 59 55 53 50 43 38 33 30 28 24 19 17 16 17 19 20
71 74 71 72 70 69 69 66 68 71 73 74 74 73 72 77 79 81 84 85 84 87 83 78 69 66 63 59 58 55 49 46 43 40 35 32 28 22 20 19 19 19 20 21
76 75 79 75 74 74 74 76 76 78 81 80 81 85 88 89 88 91 89 93 91 84 73 70 67 63 63 61 56 52 51 47 43 41 36 31 26 24 23 23 24 24 25 25
74 77 77 79 80 82 82 82 83 88 91 91 92 94 94 96 94 95 96 89 77 74 74 70 69 67 60 58 57 55 51 47 44 39 34 29 28 27 27 28 29 30 31 31
81 78 79 82 84 84 90 89 91 96 93 91 95 97 97 96 97 95 81 76 81 76 75 72 66 61 60 60 58 54 50 46 42 38 33 33 32 32 32 34 36 35 34 34
80 79 79 78 79 81 84 90 92 92 97 98 95 98 98 96 84 78 83 83 81 76 71 68 65 66 64 60 56 52 48 46 43 39 38 37 37 37 39 41 42 40 39 36
84 84 85 85 86 86 86 88 95 95 95 97 98 96 84 81 88 88 84 80 75 73 72 71 70 66 63 59 55 52 51 48 45 43 42 41 42 44 45 45 44 43 42 38
84 85 86 85 84 88 94 96 97 97 98 94 86 87 94 91 85 83 80 77 75 77 75 72 69 67 63 59 57 56 54 50 47 46 45 46 49 49 47 47 46 44 40 39
91 91 92 95 97 97 97 97 97 95 90 91 94 90 87 83 83 82 80 81 81 78 76 74 72 68 66 65 62 59 56 52 52 52 51 51 51 49 49 47 44 43 41 38
95 96 98 98 97 97 97 95 89 91 96 91 87 83 85 88 84 87 85 82 81 80 80 77 75 73 71 69 66 61 57 57 56 54 53 51 51 51 48 45 44 43 39 39
96 97 98 97 96 94 92 94 97 92 89 88 91 92 94 92 89 86 85 85 85 85 83 80 78 76 72 68 64 62 62 59 57 55 53 52 50 49 47 45 42 40 40 43
95 95 96 97 97 97 97 97 97 94 96 97 97 96 94 91 90 89 90 90 88 86 83 82 78 72 69 66 64 63 61 60 56 52 49 50 51 48 44 42 42 44 48 50
96 97 97 97 97 97 97 97 98 98 97 97 97 94 94 96 96 94 93 92 87 83 79 75 71 70 66 63 61 59 57 51 49 50 51 49 46 44 45 48 51 52 53 52
97 97 97 97 97 97 97 97 97 97 96 94 96 96 95 93 90 88 87 81 77 75 73 71 67 63 60 56 50 48 50 51 51 48 47 47 49 53 56 56 55 55 56 55

GFSNGP_prec_cthk_072.txt.gz
RH
33 33 37 34 34 34 36 34 36 34 40 37 38 39 36 31 27 21 22 25 29 34 37 39 45 48 50 48 51 64 74 77 83 83 83 92 88 84 89 95 91 90 87 82
37 36 37 36 33 34 37 38 39 41 37 33 27 26 28 30 29 27 24 24 27 33 39 47 50 53 54 57 66 68 72 80 77 69 71 73 70 68 80 79 79 77 71 72
42 42 43 46 35 36 39 38 36 36 33 33 25 23 23 27 28 28 28 29 30 30 38 46 56 61 67 61 61 66 69 72 68 63 65 68 65 63 62 66 69 69 70 69
49 55 67 31 34 38 43 38 34 32 29 27 21 20 20 22 24 27 27 30 34 36 41 49 55 62 69 70 70 70 67 64 63 64 64 65 64 61 69 75 75 74 70 60
67 52 41 36 33 37 43 38 38 34 27 26 25 23 24 26 29 32 36 37 39 41 45 50 54 57 60 62 59 59 58 61 64 60 61 62 65 76 76 74 70 60 58 58
65 67 64 33 32 36 41 35 37 35 29 22 25 26 24 28 30 33 36 39 39 40 41 45 47 47 49 51 50 51 53 54 56 59 62 72 73 74 74 62 57 60 56 51
66 69 48 38 38 41 46 32 36 32 26 23 23 24 29 29 31 34 37 41 43 44 42 40 38 39 42 44 47 49 54 55 62 66 68 72 73 64 58 60 58 51 45 39
67 77 69 39 42 41 39 42 37 36 34 25 27 26 31 33 35 37 39 41 44 43 40 40 42 45 46 48 52 56 59 62 64 68 75 67 61 60 60 55 47 41 34 27
64 58 51 49 44 42 44 45 41 41 43 36 28 29 30 33 35 37 40 42 40 38 39 42 46 48 52 56 58 59 61 66 72 68 64 62 62 57 51 44 40 34 30 33
71 58 56 56 49 48 49 52 48 47 47 47 36 34 32 34 36 38 40 40 39 40 41 43 48 53 57 58 61 69 70 72 68 67 64 60 55 50 44 41 36 33 34 34
54 62 62 58 56 54 56 56 58 54 50 44 39 37 36 36 38 41 42 44 46 48 51 54 55 56 60 66 69 71 72 72 68 61 57 53 48 46 42 38 35 33 34 34
49 49 60 61 60 62 58 58 64 63 54 47 47 43 43 43 45 47 50 52 56 58 60 63 66 70 72 74 74 71 70 64 59 57 54 51 48 46 42 40 37 35 31 26
47 54 64 67 61 67 63 66 66 61 60 56 55 53 53 52 55 58 61 64 68 70 73 75 76 77 78 74 68 66 64 60 56 54 53 49 46 49 51 50 41 34 29 27
50 56 64 68 66 64 65 68 69 65 61 60 62 63 64 65 68 70 72 76 80 82 86 87 83 80 77 70 68 66 62 58 57 56 51 50 49 48 49 50 45 42 39 30
53 59 63 64 63 63 68 71 70 71 68 69 71 71 73 76 79 81 81 84 90 94 93 93 86 78 71 70 67 65 66 61 57 54 53 51 49 48 51 46 44 44 43 40
65 63 63 67 68 71 74 74 75 75 76 78 81 83 82 84 89 91 93 95 97 97 96 85 75 75 71 69 70 67 61 59 59 57 55 52 50 48 50 46 46 47 45 43
69 68 68 74 78 79 80 79 81 82 85 89 91 90 91 93 96 96 97 97 97 91 81 84 79 79 79 71 68 64 63 62 60 57 55 53 50 48 52 49 50 50 48 45
73 75 79 82 84 82 84 87 90 93 94 95 96 97 98 98 98 97 95 93 87 91 88 86 84 76 73 70 69 69 66 62 60 59 56 54 52 50 51 53 53 51 48 48
81 86 89 86 84 85 87 89 91 90 92 96 98 92 96 93 93 95 90 92 95 92 88 82 78 75 73 73 71 68 65 64 62 61 61 59 56 53 53 54 52 50 49 49
91 91 91 90 88 89 89 93 95 95 90 89 90 94 96 94 91 95 97 96 90 85 82 80 79 79 76 73 72 69 68 68 68 67 65 62 60 57 55 54 51 51 50 50
91 92 90 89 90 91 92 93 93 92 92 96 97 95 96 97 97 96 91 88 85 83 81 82 80 79 77 75 74 74 73 72 71 69 67 64 61 62 61 57 54 52 51 47
88 88 90 91 91 90 91 94 96 97 96 96 97 97 97 97 93 89 88 87 83 86 84 82 82 81 81 80 79 78 76 74 72 69 68 66 64 62 59 56 52 48 44 44
93 93 95 96 95 94 96 97 97 96 96 97 97 95 90 88 90 92 90 89 88 87 87 87 87 87 86 84 82 80 77 72 70 69 66 63 60 56 51 48 48 46 44 42
96 97 95 94 94 95 96 97 97 96 94 91 90 92 95 96 94 91 90 91 93 95 95 95 94 91 88 83 78 73 72 72 68 65 62 56 50 47 48 49 48 44 44 47
88 90 92 93 95 95 95 96 95 94 95 96 96 96 96 96 97 96 97 97 97 96 93 90 86 79 74 71 70 68 63 59 53 48 45 46 47 48 49 50 51 52 55 57
94 96 96 95 96 97 97 97 96 97 96 96 95 96 96 96 95 94 92 89 85 82 78 71 66 62 58 53 48 44 42 42 43 45 47 49 52 56 59 60 59 60 60 60
96 96 96 96 97 97 96 95 95 94 93 93 91 89 88 85 79 75 71 64 56 50 44 40 38 37 36 38 40 42 45 49 53 55 57 60 62 64 63 63 64 65 65 66

GFSNGP_prec_cthk_075.txt.gz
RH
34 42 42 40 39 35 38 42 48 43 43 37 41 45 42 47 49 42 33 28 25 32 38 37 38 41 46 51 58 60 59 61 67 72 79 84 88 84 72 78 78 79 69 77
41 40 43 41 36 35 39 40 35 37 40 41 45 42 38 33 32 32 28 29 27 27 39 44 47 51 54 54 56 57 58 65 73 79 83 83 81 73 71 73 74 70 76 64
49 44 46 51 32 35 35 36 36 39 40 45 45 43 38 29 28 30 28 29 29 31 35 40 48 49 53 56 60 67 75 76 79 79 82 80 74 72 71 70 70 64 64 69
60 57 63 42 37 35 36 36 39 43 38 38 40 38 31 24 20 22 26 28 28 29 34 40 43 45 49 57 68 72 77 77 77 77 72 73 69 67 66 65 65 68 71 69
68 57 45 38 36 34 36 35 35 41 38 40 39 30 25 21 21 25 28 29 31 39 44 48 50 53 59 64 68 70 70 69 67 68 68 66 66 66 63 68 69 73 67 61
69 64 62 40 36 36 39 41 34 45 44 37 29 25 22 25 25 26 28 32 35 38 43 46 48 48 49 51 54 55 55 56 58 58 60 59 58 64 66 69 66 62 61 61
75 78 54 42 39 38 48 31 47 42 38 33 30 28 24 26 28 27 29 32 35 38 42 45 48 51 49 45 43 44 44 48 51 53 55 61 65 65 65 61 63 64 61 54
74 88 80 52 48 44 39 43 45 42 40 36 35 34 26 26 29 30 30 32 36 39 42 44 43 41 40 41 42 45 48 50 55 57 62 66 68 65 64 64 65 62 53 47
71 69 62 58 53 49 48 47 48 45 43 41 42 41 37 30 32 33 32 32 34 37 40 40 39 40 42 45 48 51 54 58 59 62 67 67 66 68 66 62 60 57 52 52
62 63 65 66 61 57 53 50 54 51 51 51 46 42 42 39 36 36 36 35 36 39 41 41 43 47 49 51 54 60 61 62 67 71 70 69 68 65 60 59 55 52 54 52
45 45 53 66 61 63 60 58 58 55 52 53 54 54 48 43 42 42 41 44 45 46 46 47 50 54 57 61 67 67 68 70 73 71 70 65 62 57 56 53 51 47 48 46
53 41 45 50 55 60 59 60 59 59 59 57 56 61 59 52 50 52 53 51 53 56 59 62 66 69 70 72 74 76 77 76 74 72 68 66 63 59 55 53 49 48 47 47
49 50 48 54 55 62 66 68 67 63 62 61 66 65 65 58 59 60 60 60 62 66 69 71 72 76 81 85 87 86 81 74 70 67 66 63 61 63 60 60 59 55 54 51
54 46 44 48 53 57 65 69 69 67 66 67 68 70 67 65 65 67 68 68 71 74 76 79 83 85 86 88 83 78 74 71 71 68 67 68 67 64 65 65 63 60 58 57
54 56 56 56 56 61 67 66 65 64 65 68 73 73 73 72 73 74 75 77 80 81 84 89 93 96 92 85 79 78 76 71 74 70 66 63 64 65 65 67 65 63 61 62
51 51 51 52 56 57 61 65 66 68 71 73 77 80 79 79 79 81 84 86 88 93 97 98 96 89 83 86 82 85 83 75 72 70 71 71 70 67 69 69 68 66 65 65
61 59 59 60 66 67 68 68 77 81 85 85 82 83 84 85 85 90 94 97 97 97 96 93 95 94 93 95 84 83 80 76 76 76 71 69 66 70 72 72 72 70 69 69
66 68 69 71 72 72 75 83 87 89 89 89 90 93 96 97 98 97 97 97 97 97 97 97 96 95 87 86 83 78 80 79 75 72 71 73 75 70 75 74 74 72 70 66
59 65 72 75 79 85 92 94 96 95 95 97 97 97 97 96 91 95 96 95 93 96 97 96 92 88 86 82 85 84 78 77 75 77 77 77 77 77 76 74 72 67 62 61
57 69 81 83 90 97 97 97 96 95 94 94 95 96 95 91 90 91 93 95 97 97 93 90 89 87 89 87 82 79 77 77 81 83 83 77 79 77 73 68 65 64 62 61
85 90 92 94 98 99 98 98 99 95 94 94 92 92 93 96 97 96 96 96 94 94 95 89 89 88 82 81 81 83 88 89 88 86 83 79 74 69 67 67 64 61 58 51
99 98 98 98 98 98 96 95 94 94 93 95 96 97 97 97 97 96 96 96 95 90 89 90 87 87 89 90 96 95 92 87 83 80 75 69 66 65 63 58 52 46 42 43
98 98 97 96 95 95 96 96 96 95 96 97 97 97 97 97 97 97 96 93 91 91 96 96 96 95 93 92 91 85 81 77 71 65 61 56 50 44 41 41 42 43 46 48
95 97 97 97 97 96 95 94 94 94 94 93 93 95 97 97 96 96 94 94 95 96 94 92 89 85 79 76 70 62 53 46 41 38 37 38 41 43 45 48 50 53 57 59
97 96 95 94 93 92 93 93 94 94 95 95 95 95 95 95 94 94 93 90 86 84 78 72 62 51 45 37 33 33 34 35 38 39 42 46 49 53 56 58 59 61 64 66
92 92 92 93 93 94 95 95 95 94 94 92 91 90 89 86 82 77 73 66 54 44 38 34 31 29 31 33 35 37 40 43 45 48 50 53 56 58 61 64 66 68 69 71
95 94 93 92 91 91 91 91 90 88 86 83 79 74 66 57 47 38 35 33 31 29 30 31 32 34 35 36 38 41 44 46 50 52 54 56 59 62 65 67 69 71 71 71

GFSNGP_prec_cthk_078.txt.gz
RH
49 43 47 42 39 34 33 38 44 42 48 41 44 38 38 41 49 47 52 47 39 34 41 42 34 38 42 49 49 53 60 67 62 65 70 79 83 87 93 95 96 82 79 76
57 45 42 48 47 42 36 33 36 43 40 39 34 37 43 46 43 37 40 44 39 31 29 41 47 42 44 52 56 60 59 61 65 71 72 79 89 89 90 92 86 78 73 74
56 52 46 50 47 43 40 39 39 41 41 42 45 48 45 45 43 33 29 32 27 28 30 46 44 40 41 44 49 52 55 60 67 72 84 85 84 88 86 81 78 73 74 71
73 63 61 46 39 41 42 36 37 40 40 39 38 38 40 43 36 32 27 28 26 25 33 39 39 38 39 43 46 50 58 63 68 77 84 84 80 78 79 76 73 72 70 66
72 69 53 45 45 44 39 35 35 34 36 42 45 45 44 37 30 26 24 23 25 27 31 29 31 38 43 48 51 54 58 63 68 71 73 74 73 73 71 68 72 68 68 68
84 75 78 53 44 40 39 44 31 36 40 39 40 47 43 33 23 25 25 26 28 32 32 35 36 38 41 46 48 50 51 54 59 60 61 62 62 63 64 64 65 66 68 67
77 82 64 52 46 42 50 45 36 48 48 47 42 40 34 31 25 24 26 30 33 35 35 34 35 38 41 48 50 50 48 48 50 53 54 56 59 62 65 67 66 68 67 65
80 88 76 61 56 52 43 40 45 51 46 43 40 37 36 36 36 28 28 31 35 37 39 39 40 41 44 45 42 41 45 46 48 52 56 59 61 67 69 69 69 69 70 67
74 68 67 60 63 60 56 57 54 59 56 50 46 45 43 41 43 42 37 36 40 41 41 41 41 43 43 41 41 45 50 53 56 59 61 66 69 73 70 70 72 71 68 63
72 65 68 76 70 67 62 58 56 57 54 54 51 49 48 48 48 44 45 47 45 46 45 44 46 47 46 48 51 55 58 62 66 68 68 72 73 72 73 73 71 70 65 62
58 56 56 62 62 67 67 65 61 57 57 56 54 54 52 51 51 54 57 56 52 50 50 54 56 54 56 60 65 67 71 75 77 78 79 78 77 74 70 69 68 65 63 61
63 54 48 47 48 58 56 52 59 61 64 62 63 61 60 59 59 61 66 61 61 60 60 62 63 64 69 73 75 80 83 83 88 85 80 80 75 70 72 68 67 67 62 58
54 59 59 53 48 50 55 60 65 64 67 68 68 68 68 68 68 71 72 69 68 66 66 69 70 70 74 75 79 84 90 88 85 82 80 76 76 75 79 80 75 70 68 67
41 41 49 58 54 47 54 56 63 66 68 70 72 71 71 69 69 75 79 79 76 75 74 74 75 78 83 85 88 89 90 87 87 83 79 78 83 82 73 71 78 79 75 73
50 53 52 55 58 56 50 52 58 62 63 64 68 69 68 71 75 80 81 82 81 80 80 82 85 87 90 94 96 95 90 90 87 91 91 83 76 76 82 81 77 74 75 75
40 51 51 54 55 56 56 56 58 61 66 68 71 72 76 79 79 82 86 87 89 89 89 91 96 97 97 97 97 96 96 96 92 88 83 84 87 85 79 79 81 79 79 78
45 46 47 48 54 54 55 58 63 67 70 71 71 80 86 89 90 92 93 94 95 96 97 97 97 97 97 97 96 96 97 93 86 88 89 85 81 80 80 81 81 81 79 78
52 52 57 65 68 68 69 68 69 73 75 79 85 91 93 96 97 98 97 97 97 97 96 97 97 97 97 97 97 93 88 92 92 86 84 83 82 82 81 82 81 81 77 73
53 54 57 59 67 71 73 75 80 84 94 95 96 97 97 97 97 96 96 96 96 95 95 95 95 96 95 94 95 97 92 87 85 83 82 84 83 86 87 81 76 74 70 65
58 59 61 59 58 64 73 81 87 98 98 98 98 97 96 96 96 95 95 95 95 95 96 97 97 97 96 93 88 86 84 84 87 91 93 89 84 81 78 76 74 68 63 57
58 60 60 59 59 64 80 92 95 98 97 97 97 97 96 95 95 95 96 97 96 97 97 95 95 91 89 89 91 92 94 93 90 85 80 76 74 69 63 55 48 42 39 39
80 85 90 89 90 96 98 97 97 97 96 97 96 96 96 96 96 97 97 96 94 91 93 93 93 94 93 89 87 81 78 75 70 63 55 46 39 36 36 38 40 41 43 44
97 96 97 97 97 97 96 96 96 96 96 97 97 96 95 95 97 96 95 95 94 94 93 91 87 80 73 67 63 53 44 37 34 33 34 36 37 40 42 44 46 48 50 53
97 97 97 97 97 96 95 96 97 96 96 94 93 94 94 93 92 91 90 88 85 79 72 64 56 45 35 34 33 33 32 32 33 36 38 40 42 45 48 50 52 54 56 59
97 96 95 95 96 96 95 95 94 93 93 92 91 90 89 86 82 77 71 63 54 47 40 34 31 30 31 31 30 31 33 35 38 39 42 43 45 48 51 54 57 59 59 62
94 94 94 93 93 93 93 92 90 88 86 84 81 77 71 63 52 43 38 36 33 32 32 33 32 31 30 29 30 32 34 38 41 42 44 46 49 52 54 56 58 60 62 65
95 94 93 91 90 89 87 85 82 78 73 66 55 45 40 39 36 34 33 32 31 31 30 29 30 30 31 32 34 35 37 40 43 45 48 52 54 56 57 60 63 65 67 70

GFSNGP_prec_cthk_084.txt.gz
RH
50 53 54 58 59 54 54 54 51 42 41 40 44 49 51 49 48 47 43 43 39 38 42 40 31 31 28 25 25 27 27 34 49 62 69 74 80 89 70 73 80 80 85 86
57 53 58 69 66 60 59 56 53 50 43 39 46 43 43 47 47 44 44 41 36 38 41 39 37 35 34 35 33 31 35 44 50 53 56 59 63 63 60 68 73 77 82 86
63 56 67 76 64 62 60 55 53 53 46 43 43 45 43 43 41 38 39 41 38 40 42 41 36 33 32 35 35 38 47 51 51 48 50 53 54 58 61 69 73 74 75 78
77 64 80 63 58 60 60 55 54 47 47 45 41 39 40 39 39 39 40 40 42 41 39 39 37 32 34 36 40 46 49 48 44 46 49 50 53 56 59 62 67 71 75 76
92 79 59 57 60 59 60 60 52 51 50 46 47 44 42 38 40 40 40 40 39 40 39 38 30 30 34 36 37 39 42 43 51 53 52 53 54 58 62 65 67 68 71 78
98 93 80 58 58 59 59 62 53 57 51 47 47 52 46 40 36 38 37 40 41 37 36 32 29 32 38 39 41 42 45 49 50 47 48 50 53 57 58 57 60 60 61 64
90 97 85 64 66 61 70 64 54 54 54 49 50 50 46 42 40 40 38 38 38 36 32 31 33 35 38 41 43 47 49 47 48 48 49 48 51 50 50 55 65 67 69 79
87 97 92 71 70 69 67 61 58 55 50 53 50 47 44 44 43 41 40 41 41 39 40 42 44 44 44 45 45 47 48 49 50 51 52 54 55 57 61 67 72 82 89 89
69 71 68 67 75 67 67 65 61 58 53 47 47 49 48 51 49 46 46 47 48 46 48 50 51 50 49 51 53 55 58 57 57 56 62 67 69 69 76 82 88 90 91 96
63 56 62 65 70 73 72 69 64 59 58 57 55 55 54 56 55 55 54 54 54 54 54 57 58 57 57 62 65 67 68 67 65 69 73 77 81 86 88 91 93 97 98 97
62 57 60 62 65 66 67 67 68 67 65 64 63 64 62 63 65 63 62 64 66 64 65 67 69 69 70 72 72 72 72 72 76 80 83 87 89 91 94 97 97 97 94 92
57 48 61 60 65 66 61 60 63 68 73 68 66 65 68 69 67 68 67 71 73 74 73 71 71 74 78 80 83 87 88 87 86 90 92 93 96 98 97 97 97 95 89 88
43 53 61 66 73 68 64 62 61 65 68 74 72 70 73 68 66 70 76 79 79 78 77 73 75 80 85 87 90 92 95 95 96 96 97 97 97 97 97 97 96 97 97 96
50 57 65 63 70 73 72 71 69 70 72 74 75 77 75 74 76 79 80 80 76 75 78 80 84 91 93 93 94 95 95 95 96 97 97 97 97 96 96 97 97 97 97 97
56 54 57 66 70 65 65 66 68 67 69 74 75 76 72 70 70 71 69 69 71 77 79 83 91 95 96 96 96 96 97 97 96 96 96 96 96 96 96 96 96 96 97 98
59 58 59 66 66 66 66 65 58 61 67 69 69 68 70 72 68 67 71 78 82 84 89 93 95 95 95 96 96 96 96 96 96 96 96 96 96 96 96 96 96 96 97 98
63 68 63 60 59 58 59 59 55 58 60 65 69 71 70 68 69 75 79 85 91 93 97 96 96 96 96 96 96 95 96 96 96 95 95 94 94 94 94 95 94 94 95 93
64 63 62 60 57 59 59 54 55 59 63 64 66 68 74 79 82 87 89 89 94 97 97 97 96 96 96 95 95 94 93 92 89 87 86 87 87 88 86 84 80 73 69 65
60 59 65 65 67 64 62 62 64 67 73 78 76 79 83 82 82 85 92 97 97 97 96 97 96 94 93 91 88 85 83 83 85 85 84 79 73 66 62 57 54 51 47 43
84 83 86 86 90 80 75 72 71 70 70 70 70 69 67 69 75 87 94 96 96 96 96 95 92 90 89 88 86 84 78 72 65 58 50 43 37 34 32 32 31 32 34 37
99 93 90 90 87 84 80 75 75 73 73 70 68 71 72 77 96 97 96 96 96 94 91 90 89 85 78 70 60 51 41 34 31 30 29 29 28 28 29 31 33 35 36 38
99 93 92 94 86 77 71 69 72 74 81 91 94 96 97 97 96 96 95 92 93 90 83 75 65 54 43 35 31 30 28 27 26 25 25 25 26 28 30 33 35 38 40 42
93 90 89 86 80 75 75 84 91 95 97 97 97 97 96 95 93 89 86 82 74 64 51 41 35 31 29 26 24 23 23 24 24 23 24 26 28 30 32 35 38 41 44 47
88 84 79 79 81 86 88 93 97 97 96 96 96 93 88 83 78 71 60 51 44 39 34 31 27 25 22 21 20 19 18 19 20 22 24 26 29 31 35 38 40 44 48 51
85 83 81 83 89 95 97 97 96 95 92 89 84 79 71 58 47 45 42 38 35 31 27 26 24 21 19 17 16 15 16 18 20 23 25 28 32 35 38 42 45 48 51 55
87 88 91 96 96 96 96 93 89 86 80 72 60 50 45 43 40 38 35 32 29 26 23 21 20 18 15 14 15 16 18 21 24 27 30 33 36 39 43 46 50 54 58 61
97 97 96 96 95 91 87 81 73 60 49 46 44 44 42 39 36 32 29 26 23 21 20 18 15 14 15 16 18 20 23 26 29 32 35 38 41 45 49 53 56 60 64 69

GFSNGP_prec_cthk_087.txt.gz
RH
57 46 52 54 57 58 57 56 57 49 50 42 47 53 39 38 50 51 49 47 47 42 40 39 42 39 35 32 31 30 28 29 29 35 41 57 70 73 77 83 87 79 69 80
65 56 56 56 56 59 62 59 56 53 48 44 41 42 40 40 47 51 49 46 46 43 40 41 43 41 37 33 30 28 28 30 32 44 53 58 60 63 71 69 66 71 71 71
74 62 68 72 54 56 56 61 59 57 50 50 48 44 41 41 44 46 45 43 41 40 38 39 43 43 40 38 33 34 36 39 45 49 53 54 54 57 60 58 67 64 64 64
96 78 84 51 53 54 55 55 64 60 54 54 49 40 37 37 43 42 40 39 42 41 38 40 40 41 42 42 37 41 44 49 52 52 49 46 52 57 57 58 57 60 65 70
98 86 64 57 53 52 59 57 65 62 56 55 49 44 37 33 35 36 35 39 41 42 39 41 41 40 38 37 35 42 50 48 50 51 52 57 59 60 59 60 60 63 65 67
97 96 75 58 50 57 71 72 65 63 61 56 52 50 47 43 39 40 39 42 40 39 40 43 39 35 30 31 36 43 46 49 52 53 53 54 53 53 58 58 58 59 63 63
91 98 86 66 64 62 84 69 63 63 64 59 58 52 50 49 47 46 42 43 41 43 43 42 38 36 38 40 45 49 53 54 53 53 51 50 51 53 55 56 59 58 64 68
94 97 89 63 68 67 63 64 68 61 63 59 58 57 55 54 51 49 45 43 42 43 47 43 44 46 48 51 54 55 58 57 56 55 56 58 60 58 59 62 63 68 78 80
81 81 61 62 58 69 75 73 72 72 63 63 60 58 56 57 54 53 52 52 53 52 50 49 52 54 56 57 59 59 61 60 60 61 64 65 67 71 71 72 75 83 87 91
71 62 59 58 59 66 78 77 72 75 74 69 63 63 61 62 63 61 60 58 57 57 57 58 61 64 66 66 69 71 72 70 69 71 75 78 80 81 82 88 92 96 97 96
66 59 63 57 62 63 69 75 78 76 75 71 68 70 66 71 72 67 64 66 67 68 69 70 76 77 76 76 76 78 79 81 83 86 87 88 91 94 97 98 98 97 98 98
58 55 60 58 64 69 78 75 76 79 78 78 75 71 71 75 77 73 70 72 74 76 78 79 81 81 82 82 79 78 79 83 86 92 96 97 97 97 97 97 97 97 97 97
50 55 53 56 56 66 78 78 72 71 71 69 77 78 79 85 81 80 79 77 77 78 83 81 82 82 83 82 80 81 85 90 94 96 95 96 96 97 97 97 97 96 97 97
49 49 52 49 55 70 68 76 80 72 73 72 79 81 85 88 88 85 83 83 82 82 82 79 79 76 76 78 80 82 89 93 95 95 95 94 94 95 96 96 96 97 97 97
52 56 54 50 70 73 67 76 79 80 85 84 79 87 87 85 91 87 83 79 79 80 75 77 82 85 85 87 91 92 92 91 91 92 92 93 95 96 96 97 97 97 96 96
62 59 55 57 68 77 76 72 79 77 82 77 79 81 83 82 84 83 82 82 78 76 80 83 85 86 89 95 94 93 93 93 93 93 94 94 95 94 93 92 91 92 93 94
65 63 59 59 66 74 75 73 77 74 76 67 63 68 77 81 83 84 83 83 81 83 86 87 88 93 97 96 94 96 96 94 92 90 89 87 85 83 82 83 82 79 74 68
64 61 60 70 71 69 73 74 70 67 67 61 66 71 71 71 74 78 82 86 86 82 83 86 93 96 97 96 94 91 87 85 83 83 82 79 74 68 60 53 50 47 44 42
65 62 69 68 75 73 72 73 71 68 67 64 72 82 85 86 83 82 81 76 73 75 81 90 95 95 92 89 88 87 85 81 73 61 50 41 34 32 31 30 30 29 28 28
90 84 75 76 80 76 75 77 78 75 71 74 75 78 78 77 73 70 69 70 72 81 97 96 94 92 89 85 78 65 48 36 31 29 28 27 26 26 25 24 24 25 26 28
94 93 87 84 81 85 91 95 92 84 88 93 84 79 76 70 76 83 90 92 96 96 94 90 85 77 63 45 36 32 28 26 25 24 23 22 21 20 20 21 23 25 27 31
95 97 96 96 98 99 98 93 90 84 77 71 71 77 84 92 96 97 97 95 93 87 78 63 48 39 35 31 26 25 23 21 20 19 16 15 16 19 21 23 25 28 33 36
98 98 98 97 97 96 95 94 87 80 76 80 89 95 97 97 96 92 87 82 70 55 44 38 35 30 26 24 21 19 18 17 15 14 15 18 20 22 24 26 29 32 35 38
96 97 97 96 95 92 89 92 89 82 86 93 97 97 93 87 82 73 59 53 46 39 34 29 26 24 21 20 18 16 15 14 15 16 19 21 23 25 27 30 33 36 40 43
95 96 95 93 91 90 88 85 83 89 96 95 90 85 75 61 50 50 44 40 35 30 27 24 22 21 19 18 16 15 15 16 18 20 22 24 28 30 34 37 40 44 47 52
91 94 94 93 91 89 87 88 93 93 87 79 66 54 48 45 41 38 34 31 28 25 23 22 20 19 17 15 15 16 18 19 21 23 26 30 33 36 40 43 48 52 56 59
91 91 91 90 89 90 93 90 82 70 57 49 47 47 42 38 34 31 29 27 25 23 21 20 18 16 15 16 17 19 20 21 23 26 30 33 37 40 44 48 51 53 54 56

GFSNGP_prec_cthk_090.txt.gz
RH
73 70 73 64 59 51 53 46 56 50 53 50 47 42 45 50 53 45 52 45 47 44 42 40 38 44 45 41 35 32 31 30 26 29 31 35 40 50 62 76 80 80 83 85
86 72 77 67 49 54 50 52 52 54 54 50 46 46 47 53 54 50 49 46 48 46 45 42 39 41 43 45 44 39 34 31 33 36 39 43 49 62 68 67 68 74 76 78
80 78 94 85 37 39 49 53 55 61 57 53 47 49 52 48 43 42 43 52 46 43 43 41 39 39 43 46 47 46 45 42 41 45 53 60 60 62 65 67 64 64 66 60
95 86 96 58 53 40 47 48 51 53 54 55 51 52 50 49 43 37 40 46 49 43 40 40 42 42 44 44 46 48 50 50 50 56 62 62 61 59 60 60 66 64 61 61
90 97 86 83 67 54 54 50 51 51 52 54 55 55 48 51 47 41 37 43 46 43 40 42 42 41 43 47 48 45 47 52 58 63 61 58 60 62 61 62 60 59 58 60
93 94 87 75 80 72 63 64 52 54 51 52 57 58 52 50 48 45 42 42 44 45 45 43 41 41 43 43 40 41 43 48 55 58 56 58 60 59 59 59 54 59 62 61
88 90 83 66 75 83 79 67 58 58 53 57 56 57 56 54 52 49 50 45 45 45 45 42 43 45 43 42 43 46 50 54 57 59 59 59 62 63 60 59 66 68 68 66
97 98 89 69 70 95 81 70 62 62 64 69 66 65 65 60 57 57 55 55 54 50 50 51 53 52 53 55 54 56 57 58 60 61 62 64 62 62 65 68 72 73 74 80
89 92 67 63 69 71 77 80 75 67 75 71 71 73 72 66 64 63 62 61 61 60 64 66 65 64 63 61 63 63 64 66 65 66 68 68 69 71 75 78 81 83 84 89
71 58 64 60 67 70 66 66 75 75 76 74 76 74 73 71 73 70 67 66 70 70 69 71 72 70 71 71 70 71 73 74 74 75 76 76 78 82 86 90 92 94 96 97
64 59 67 63 59 61 63 62 70 81 78 83 85 82 82 80 77 75 77 78 80 82 73 77 77 77 78 78 76 75 77 79 79 79 78 80 84 89 92 94 97 98 97 97
65 74 65 62 61 63 64 68 67 75 80 82 90 87 87 87 81 80 88 83 85 92 83 83 84 84 84 82 80 80 80 79 78 77 79 82 86 91 95 97 97 96 96 96
60 69 64 56 55 54 60 74 71 77 77 81 86 90 87 86 90 94 90 89 92 92 93 91 90 91 90 85 82 78 75 76 78 81 84 87 90 92 92 90 90 90 92 93
62 67 61 58 52 53 62 76 81 79 87 85 85 88 88 91 94 96 93 94 98 96 98 95 88 86 85 80 77 80 83 84 84 86 87 88 88 88 88 88 88 88 89 90
51 58 60 55 53 51 63 75 86 80 90 91 95 90 90 92 95 98 98 98 98 96 94 92 92 90 81 80 81 82 84 85 88 89 87 87 88 88 87 86 86 87 89 90
62 70 71 60 58 54 65 76 81 78 77 82 81 89 95 91 89 97 96 94 95 95 96 93 87 84 83 85 85 85 87 90 89 88 87 85 82 81 81 80 77 70 61 54
78 78 64 66 62 58 65 71 77 77 83 82 82 78 78 82 85 84 88 91 92 92 90 86 84 87 82 78 79 81 87 87 86 83 81 79 74 65 53 43 37 34 32 31
73 75 67 66 64 61 62 62 71 79 82 80 77 74 71 77 85 88 86 86 85 85 86 82 79 76 74 74 83 85 84 84 78 66 51 40 34 31 29 28 27 26 25 25
62 75 72 71 65 63 66 68 71 78 78 80 81 77 74 82 97 98 96 89 81 73 72 72 71 72 74 81 83 76 61 46 38 34 31 29 26 25 24 22 21 20 19 19
57 71 73 68 68 66 65 68 76 79 84 86 86 86 82 85 87 85 82 76 72 74 78 85 89 87 79 64 49 41 37 33 30 28 25 23 22 20 18 17 17 18 19 21
69 72 77 71 69 66 69 78 82 85 94 95 89 94 97 97 92 83 74 74 83 89 91 86 72 54 44 40 36 32 30 28 25 23 22 20 18 18 17 18 19 19 20 23
87 86 85 81 75 80 80 82 91 97 97 97 96 92 87 81 75 79 87 92 91 82 66 52 43 40 36 33 31 28 25 23 22 20 19 19 18 17 18 19 21 23 25 28
90 93 98 95 94 96 97 96 97 98 97 97 95 90 85 81 86 88 88 78 61 50 43 40 37 34 31 28 26 24 23 21 20 19 18 17 17 19 20 22 25 27 30 33
96 97 97 97 97 96 97 96 95 95 96 97 97 91 85 83 84 73 60 51 45 42 38 34 31 29 27 25 23 22 21 20 17 16 16 18 19 21 23 26 28 31 34 36
97 97 97 97 96 94 94 95 96 96 96 96 91 83 75 66 56 51 46 43 39 34 32 30 28 26 25 23 22 20 17 15 15 16 18 20 22 24 27 29 32 34 36 38
97 97 97 97 94 93 93 95 95 94 90 81 71 60 54 48 45 44 39 35 33 31 29 27 26 24 23 20 17 16 15 16 17 19 21 23 26 28 31 33 35 35 36 39
96 95 93 92 92 92 92 92 83 76 64 57 53 50 46 45 41 36 34 32 30 28 26 25 23 20 17 15 15 16 17 19 20 22 24 27 29 31 33 35 35 36 39 45

GFSNGP_prec_cthk_093.txt.gz
RH
47 45 50 58 53 51 58 57 55 39 44 46 44 39 47 47 45 49 49 49 47 42 39 43 44 42 42 43 40 38 37 36 34 36 36 36 41 47 51 56 61 67 74 83
56 50 49 47 54 52 50 55 53 47 41 42 48 44 44 45 48 49 55 55 43 41 42 45 45 44 42 45 45 46 44 41 40 39 37 36 38 40 45 54 62 69 74 76
64 53 58 60 45 61 51 42 39 44 40 45 45 44 46 49 49 46 50 54 54 45 43 45 47 43 42 43 46 47 48 50 52 51 47 46 48 57 62 67 68 67 68 70
78 82 77 37 58 72 68 46 41 38 42 48 48 49 48 50 49 48 45 45 46 48 51 49 45 44 41 43 46 50 52 52 53 57 58 59 58 61 68 70 65 62 62 67
70 87 56 40 62 72 74 57 51 41 42 44 48 56 49 52 52 49 47 45 43 43 50 50 49 45 42 44 47 50 50 52 51 52 57 60 62 66 69 65 63 63 63 63
67 85 65 36 58 68 69 66 72 63 57 50 53 54 42 57 57 54 54 49 48 48 53 52 53 47 48 50 54 55 55 49 47 48 52 58 60 63 61 63 65 67 66 64
62 79 60 54 62 68 78 86 81 76 68 56 54 51 49 60 64 56 55 54 55 56 58 60 55 53 54 54 56 57 51 54 57 58 61 63 65 65 66 68 71 70 68 68
82 89 80 82 80 83 83 89 85 84 77 71 60 61 62 62 63 62 67 65 67 65 62 62 63 64 63 62 65 62 65 66 67 68 69 70 70 71 73 74 75 74 75 77
98 91 84 86 80 80 81 80 81 85 80 75 72 69 66 69 72 75 76 73 73 68 67 69 70 76 70 71 73 73 71 72 75 74 74 76 76 77 77 77 78 79 82 85
60 70 84 83 77 78 80 75 76 83 86 80 79 80 76 81 82 83 84 81 79 76 73 74 75 77 76 75 73 76 76 79 80 79 80 80 83 85 84 81 82 84 88 94
46 51 64 73 75 67 66 68 75 79 79 84 85 81 80 82 88 88 90 86 85 82 76 75 77 78 81 81 79 80 84 84 85 88 87 85 82 80 80 82 86 89 92 94
45 40 56 66 70 66 67 70 73 75 74 81 85 88 92 90 92 92 93 90 84 80 80 84 83 87 88 88 89 87 86 85 85 81 76 78 81 83 84 86 88 89 90 90
42 42 48 63 68 67 61 72 69 70 78 86 86 88 94 98 97 97 94 91 90 91 92 90 91 96 96 94 95 90 84 82 79 77 79 81 83 85 86 90 89 86 86 86
50 48 52 60 64 64 58 66 79 73 81 86 89 92 90 97 98 99 99 97 98 97 98 98 97 98 98 97 92 90 89 82 80 81 82 84 84 85 86 87 84 82 80 78
49 45 44 53 65 67 62 71 83 77 79 86 90 93 96 95 94 98 99 99 98 98 99 98 98 97 96 95 91 89 84 82 80 78 78 77 79 80 78 74 67 58 51 48
40 40 45 48 66 67 68 70 84 88 82 87 88 92 92 95 92 93 98 95 97 98 98 96 97 96 96 90 86 83 81 76 69 65 67 72 70 60 49 41 37 34 32 30
42 42 56 62 64 72 72 78 89 89 82 88 92 90 90 89 85 88 91 92 90 87 89 87 86 85 84 85 81 73 67 65 62 55 52 44 37 33 31 30 29 28 27 24
46 46 61 80 76 76 73 81 89 84 78 85 87 86 86 82 87 88 93 95 97 96 96 95 87 80 75 69 63 58 55 50 46 41 36 32 30 28 27 26 25 23 21 20
48 44 50 77 84 81 79 85 86 82 78 78 83 84 88 90 92 89 93 97 97 96 94 86 77 69 63 61 57 53 47 40 36 33 30 28 27 26 25 24 22 20 19 19
52 47 46 74 87 82 83 81 89 80 79 82 87 88 89 89 90 88 86 87 87 85 83 75 63 59 55 51 47 41 37 34 31 29 27 27 26 25 23 21 20 20 19 19
54 52 51 56 81 86 85 92 88 84 83 87 96 91 97 92 96 97 96 94 89 76 63 58 56 52 48 42 39 36 32 29 28 27 27 26 24 22 21 19 18 18 19 21
63 63 69 68 73 90 91 93 91 85 87 92 96 97 97 97 97 97 92 84 72 59 52 49 48 42 40 37 34 31 29 29 28 27 25 22 21 19 17 18 19 21 22 24
74 81 87 78 82 90 91 91 91 92 95 94 97 97 96 97 96 90 80 65 54 46 46 44 41 39 36 32 31 30 29 28 26 23 21 19 17 17 19 20 22 23 25 26
90 95 98 91 89 91 96 96 95 97 97 97 97 96 96 94 83 71 58 48 44 42 41 40 37 34 32 31 30 29 27 24 21 18 16 17 18 20 21 23 24 25 26 27
97 97 98 95 96 97 97 97 97 97 97 96 97 95 84 71 58 54 46 40 42 41 38 35 33 32 31 30 28 25 22 18 16 16 18 19 21 23 24 25 26 26 27 29
97 97 97 97 97 97 97 97 96 97 97 95 83 70 58 53 49 44 42 42 39 36 34 33 32 31 29 26 23 19 17 16 17 18 20 22 24 25 26 27 27 27 30 35
97 97 97 97 97 97 97 97 97 93 76 64 56 55 50 46 44 42 40 37 36 35 33 32 30 28 26 22 18 17 17 17 19 21 23 24 26 27 28 29 29 31 36 41

GFSNGP_prec_cthk_096.txt.gz
RH
40 31 36 42 45 43 48 52 58 51 51 43 42 40 44 46 49 49 50 51 51 50 47 45 46 45 48 46 47 45 48 49 45 43 43 44 44 50 58 67 69 75 76 67
52 42 34 31 27 35 42 42 43 41 39 45 47 45 40 43 45 48 51 52 50 51 49 46 47 48 50 50 49 45 47 49 49 46 43 39 38 39 41 44 47 50 55 65
45 53 52 46 27 23 20 30 44 47 38 34 36 38 41 42 50 49 49 49 49 49 49 48 49 55 54 52 51 52 53 55 56 57 55 53 52 52 52 52 56 61 68 73
55 60 67 44 46 32 24 32 40 50 42 35 34 35 43 38 44 53 52 48 48 55 49 49 47 51 57 55 51 53 58 59 61 63 66 65 65 65 65 64 69 69 73 75
60 45 40 48 50 53 55 52 55 60 50 42 37 39 36 41 48 49 52 51 48 49 56 51 48 54 59 57 56 56 55 61 64 64 65 67 69 79 80 78 75 77 77 74
64 63 56 40 66 64 63 55 61 65 67 61 49 40 37 46 43 49 54 55 55 54 51 51 50 56 56 58 55 57 57 61 63 65 65 61 58 62 65 66 71 75 73 68
84 82 54 54 62 65 72 74 68 70 72 65 61 51 47 43 44 48 50 58 60 62 57 54 55 55 62 63 61 62 60 59 63 61 59 59 63 66 70 73 73 72 72 75
86 89 71 58 72 86 89 80 76 75 81 78 72 61 57 54 54 54 56 62 63 64 65 62 63 68 70 66 63 66 66 65 68 63 64 68 74 75 76 77 78 81 83 83
70 77 67 66 87 93 95 88 79 81 87 87 85 80 73 69 69 66 63 69 70 66 66 66 66 70 67 66 71 71 74 73 73 72 72 76 78 79 80 81 81 83 83 85
63 59 74 86 92 90 90 84 86 84 93 96 90 88 87 86 82 79 79 77 79 78 77 75 76 75 76 76 77 76 77 79 77 75 77 79 80 79 84 87 86 85 81 81
58 50 55 66 81 81 80 82 83 87 92 88 87 94 95 96 94 92 89 91 86 83 82 80 82 82 82 82 81 77 80 82 83 82 83 86 85 84 82 79 78 80 82 84
61 56 52 55 58 68 76 73 73 90 92 89 90 92 96 96 93 89 90 98 94 89 88 89 89 87 86 85 83 80 81 89 89 89 87 80 77 76 76 78 79 80 80 81
57 54 51 44 52 66 69 73 67 83 89 88 88 91 95 96 97 98 96 97 96 95 93 92 91 90 87 88 87 88 94 97 96 88 81 81 80 80 79 80 80 78 75 74
51 49 47 45 48 61 72 73 68 79 90 86 90 93 96 95 95 96 98 98 99 99 98 97 96 95 97 99 99 98 95 90 86 86 83 82 80 77 73 69 66 62 57 52
52 53 48 43 42 46 63 77 75 75 93 87 86 90 99 98 94 96 98 98 99 99 99 99 99 99 98 98 95 92 88 83 80 77 76 73 69 66 56 47 45 46 45 40
58 56 48 43 44 46 58 74 78 75 87 91 93 99 98 96 95 92 97 95 98 98 98 98 98 98 97 91 85 82 80 79 76 70 61 51 39 34 35 40 41 38 32 27
64 58 47 48 45 50 56 70 83 83 87 96 95 96 94 95 93 98 98 95 94 97 96 98 94 88 90 87 81 73 69 63 52 41 37 36 34 36 38 38 36 34 30 25
68 62 54 49 48 57 66 68 78 85 91 92 95 97 96 94 98 93 96 89 97 98 97 97 96 92 88 81 73 59 50 43 39 36 33 33 35 34 33 33 34 35 34 28
65 61 55 52 49 54 75 79 80 90 91 89 96 96 96 97 96 94 94 95 97 97 97 95 90 82 74 61 49 43 40 36 33 33 34 32 30 30 30 32 32 31 29 24
66 63 59 53 49 49 69 91 91 91 96 95 95 93 98 96 97 95 93 93 93 91 87 81 74 65 53 40 38 36 33 34 35 33 30 29 29 29 28 26 23 21 18 16
66 62 58 54 51 48 66 94 93 95 89 98 96 94 96 98 96 93 97 94 91 84 77 68 60 48 40 37 32 31 34 34 31 30 30 29 28 27 24 21 19 16 17 18
69 65 62 60 59 55 59 95 97 97 97 98 93 90 95 96 97 97 97 90 80 70 62 55 46 40 35 32 33 34 33 32 31 29 28 27 25 22 20 17 17 17 18 18
73 70 67 66 66 70 70 79 97 98 97 98 96 97 96 97 97 94 87 76 65 57 52 49 43 36 34 35 35 34 33 31 30 28 26 23 22 19 17 18 18 19 19 19
73 75 77 80 88 84 83 86 93 97 97 96 95 94 97 97 90 78 67 62 54 52 48 43 38 39 37 35 34 33 32 31 28 25 23 20 18 18 18 19 19 19 20 21
80 85 89 96 96 86 93 97 96 97 96 95 95 97 93 81 68 65 58 53 50 46 44 43 40 37 36 35 34 32 30 26 24 22 19 18 18 19 19 20 21 21 22 25
93 96 96 95 94 95 97 97 96 97 97 97 94 83 73 65 60 54 52 47 44 43 42 39 38 37 35 34 32 29 26 23 21 19 18 18 19 21 22 23 24 23 25 27
96 97 96 97 97 97 97 97 97 97 95 79 70 66 61 55 53 50 46 44 44 42 40 39 37 36 34 32 29 27 23 19 18 18 19 20 21 23 25 26 27 26 27 29

GFSNGP_prec_cthk_102.txt.gz
RH
44 37 56 58 60 57 54 61 79 69 56 57 65 69 61 55 55 52 52 58 58 55 56 54 55 55 57 53 52 51 51 51 51 51 51 52 56 57 57 60 62 64 65 77
51 32 36 54 53 59 55 47 44 47 48 50 58 53 50 51 49 47 47 53 60 62 56 60 58 61 60 57 53 51 49 51 54 54 52 57 60 57 55 55 56 57 56 55
54 45 31 38 42 50 52 45 40 40 30 28 40 45 43 39 44 44 41 51 49 56 65 60 61 60 58 57 54 53 48 51 56 56 56 56 60 62 63 63 62 64 64 64
80 65 77 26 24 34 40 37 30 29 24 22 24 28 32 33 41 42 45 51 52 54 60 65 67 58 57 58 58 58 53 55 61 61 60 58 59 61 65 66 68 68 70 74
84 68 56 46 46 59 63 57 63 56 55 46 39 42 37 43 47 53 51 54 51 53 51 59 68 64 64 66 66 64 60 63 62 62 58 59 58 60 65 69 75 78 79 79
86 78 50 35 61 62 49 60 86 80 74 65 60 55 43 55 52 54 56 55 54 53 54 57 62 68 67 70 67 64 62 64 62 65 67 68 67 65 67 72 79 80 76 77
83 94 63 50 67 57 55 61 81 87 82 85 74 59 55 60 65 61 57 55 55 53 50 55 58 64 64 65 67 71 74 72 71 69 75 78 78 79 78 76 77 75 74 75
81 84 80 57 55 64 71 76 89 84 82 76 73 67 59 63 64 63 60 55 52 49 51 53 58 61 64 67 70 71 78 78 78 82 83 83 85 86 86 86 81 76 79 81
75 73 70 69 72 74 67 61 71 74 70 67 64 69 65 64 72 62 58 60 54 47 49 54 60 66 69 70 71 75 77 78 81 84 83 85 83 93 86 89 87 86 87 90
91 80 89 84 73 68 67 69 65 62 68 68 78 78 79 74 77 77 68 60 57 54 52 54 58 65 71 72 74 77 80 81 82 82 87 86 82 91 89 91 92 89 89 91
77 71 67 80 76 78 70 71 72 76 82 87 90 96 97 98 82 84 81 75 69 66 61 56 57 62 67 75 80 80 84 87 91 94 93 97 89 89 89 92 95 96 96 91
84 90 84 84 82 71 73 74 84 86 86 86 96 95 92 95 97 90 89 86 82 80 76 74 73 78 79 85 89 92 94 96 97 98 96 95 93 89 95 97 97 95 90 86
81 81 74 70 64 64 66 75 75 80 84 81 88 96 94 95 97 91 95 93 95 95 90 88 91 92 89 92 94 97 99 99 99 97 95 98 98 97 97 97 94 87 78 67
70 66 60 62 61 63 57 55 59 69 79 84 86 87 90 93 98 96 98 98 99 95 98 97 95 98 97 97 99 99 98 98 98 98 98 97 97 94 89 84 75 66 58 53
73 70 72 72 76 62 61 57 52 55 73 81 87 87 84 94 98 96 97 97 98 96 98 98 98 98 98 98 98 98 98 98 97 97 96 95 93 89 78 71 65 61 57 51
64 72 74 62 70 68 63 51 53 50 57 65 79 88 89 89 98 98 97 98 98 98 98 98 97 97 97 97 97 97 97 97 95 92 89 82 73 67 60 54 49 43 42 45
70 69 68 62 63 76 74 61 51 47 48 55 67 76 86 95 93 94 97 98 95 96 97 96 97 97 97 96 97 97 96 96 88 73 66 59 54 50 46 42 38 34 30 27
68 69 67 63 62 60 66 63 53 50 51 56 62 70 85 90 96 94 96 96 96 97 97 97 97 97 96 96 96 90 76 67 61 55 52 50 47 45 42 40 36 33 31 31
66 67 66 65 63 65 64 63 60 56 55 55 67 72 75 89 92 94 95 95 97 97 97 97 97 97 93 82 73 65 60 56 52 48 44 40 38 38 35 34 34 33 31 29
63 65 65 66 64 65 66 67 62 58 57 56 60 69 72 80 92 91 94 96 97 97 96 96 91 85 76 67 62 56 52 50 46 43 39 36 34 33 32 33 33 33 31 27
66 65 68 70 71 70 69 68 68 63 60 56 56 62 72 77 85 96 95 96 97 97 91 86 78 72 65 61 54 51 47 45 43 40 39 39 39 37 37 34 30 27 25 23
82 77 72 74 76 75 72 70 69 65 62 59 59 65 84 84 97 97 97 97 96 89 85 78 74 65 61 53 52 47 44 44 43 41 41 41 39 36 32 30 28 26 24 21
94 90 85 82 77 74 72 70 69 67 65 62 61 65 83 90 96 96 97 97 91 85 77 70 65 63 58 53 51 46 43 42 41 40 38 36 35 32 30 28 26 23 21 19
94 95 92 88 85 82 78 75 74 72 71 68 68 67 72 88 96 97 96 87 78 75 69 65 61 55 53 52 47 44 43 42 40 38 37 35 33 31 29 26 22 21 19 17
93 95 94 89 90 87 82 79 77 76 75 74 79 79 80 83 90 91 86 79 75 70 65 65 63 55 53 52 47 44 43 41 39 38 36 34 32 29 26 24 22 19 18 18
95 95 90 85 89 88 85 84 85 86 89 92 91 89 87 91 89 85 80 76 73 68 62 59 57 56 53 48 44 44 41 39 37 35 33 32 30 27 25 22 21 21 20 19
93 94 94 88 81 83 86 90 89 91 95 91 91 96 97 89 83 77 74 70 68 66 64 58 54 50 46 45 43 41 39 38 36 34 33 31 28 25 22 21 21 21 22 22

GFSNGP_prec_cthk_105.txt.gz
RH
27 22 40 43 42 48 59 66 84 80 69 68 70 70 77 77 65 62 63 58 60 71 78 51 53 50 50 51 52 50 51 49 50 49 50 49 53 57 58 62 66 68 67 67
41 27 20 44 43 36 45 51 57 56 58 58 57 54 62 61 61 61 57 57 54 64 73 78 55 52 53 55 56 53 55 52 52 50 52 54 53 55 58 59 59 58 57 61
56 51 37 39 36 38 31 33 40 43 45 55 49 50 62 64 64 61 58 58 56 57 63 69 78 55 54 60 62 59 58 56 54 54 56 57 59 60 59 60 58 61 63 66
66 76 78 25 22 27 31 35 49 65 60 58 59 61 59 60 59 59 56 54 56 57 58 65 71 70 59 60 61 62 62 58 57 57 61 65 66 63 61 61 66 68 72 77
96 87 77 51 68 61 51 55 75 79 69 62 55 48 46 50 55 57 55 56 55 56 59 63 65 66 91 72 63 66 66 62 62 63 64 66 67 67 70 71 72 76 78 78
93 93 81 59 73 72 70 82 89 83 73 61 53 51 49 46 45 42 48 56 53 55 67 67 62 62 59 79 70 68 69 70 66 67 69 72 74 74 78 79 79 78 80 86
87 90 73 62 68 71 70 73 70 61 65 68 75 66 58 55 48 46 52 57 60 59 68 72 75 71 72 69 74 75 77 76 74 72 74 80 81 81 84 85 85 87 92 93
73 85 79 62 60 68 78 69 59 56 56 65 72 68 69 64 55 51 49 55 61 67 68 71 69 70 72 74 76 76 77 78 80 82 83 89 89 90 88 91 93 94 97 98
66 62 72 77 76 83 77 67 60 55 53 59 65 72 75 70 63 58 59 62 59 61 64 65 66 66 67 66 68 72 77 82 84 86 87 90 93 94 94 93 95 94 96 98
87 77 80 78 83 78 73 63 58 63 64 72 75 80 75 71 65 62 61 64 67 61 62 63 61 60 63 65 66 69 73 77 81 87 90 94 96 96 97 95 97 99 98 97
97 95 94 95 89 79 71 67 65 71 72 70 75 75 72 74 73 71 66 65 71 69 68 65 60 59 58 60 63 71 78 81 86 90 94 97 99 99 99 99 99 97 97 98
99 95 96 86 77 74 71 72 78 79 84 78 85 83 92 91 89 91 79 70 76 79 75 70 67 65 60 58 64 69 76 82 87 94 97 99 97 96 98 99 98 98 97 96
85 82 79 76 78 75 75 76 77 78 77 79 83 87 85 82 83 93 92 85 80 81 81 78 77 77 76 74 69 70 78 82 85 90 95 99 99 98 98 98 97 96 88 79
75 79 80 80 75 76 75 68 67 65 67 81 88 91 93 89 88 90 94 96 91 85 88 87 91 93 89 86 83 83 88 95 95 94 98 98 98 98 98 96 90 80 67 61
74 81 79 81 75 87 83 72 65 54 54 68 84 89 89 92 91 96 97 97 95 98 96 96 96 94 97 97 93 97 95 97 97 97 97 97 97 95 84 73 67 68 67 60
74 77 77 75 82 77 75 69 71 60 52 51 63 77 84 92 97 95 96 97 97 97 96 97 96 97 97 97 98 97 97 97 97 97 96 89 77 68 64 59 55 54 48 45
72 71 73 74 73 68 59 65 69 66 57 53 53 61 75 85 88 97 97 97 97 96 97 97 97 97 98 97 97 97 97 97 96 86 70 65 61 56 52 51 47 44 40 38
70 69 69 68 66 64 62 59 62 63 60 55 56 57 67 71 86 92 97 95 94 96 97 97 97 97 97 97 97 97 93 81 70 66 64 60 54 48 43 40 36 34 33 31
69 69 68 66 65 65 65 63 65 66 65 60 58 59 63 70 81 89 91 91 94 95 97 97 97 96 97 96 87 76 66 64 60 57 53 49 45 42 38 37 37 35 33 31
69 66 64 62 62 64 65 68 69 69 68 64 59 59 59 64 71 74 83 93 94 96 97 97 98 96 89 81 72 64 63 61 54 51 46 42 41 40 39 37 36 34 31 30
74 71 68 64 61 62 63 67 69 70 70 71 66 63 59 58 63 68 76 81 91 97 97 95 88 84 78 72 66 61 55 52 47 43 42 42 41 40 39 36 33 32 30 29
83 78 79 78 71 66 65 70 72 73 72 73 70 65 63 65 67 78 83 91 97 97 94 87 81 75 69 64 62 57 53 50 48 44 44 43 42 39 37 35 33 32 30 27
87 87 87 89 83 77 76 74 74 75 77 76 74 70 67 67 72 74 85 93 96 93 88 80 72 67 65 62 60 59 57 53 49 48 45 44 40 38 36 34 32 30 28 25
91 91 91 92 95 94 87 86 84 81 80 78 77 74 72 70 72 73 75 83 91 88 79 77 76 71 66 64 59 54 54 54 48 44 44 41 39 38 36 34 32 29 27 23
92 93 94 94 96 96 94 93 90 88 87 86 83 81 79 78 78 76 78 74 78 78 76 69 69 71 66 62 61 55 53 48 46 45 44 40 38 37 35 34 31 28 25 22
91 91 92 94 96 95 97 97 97 95 93 90 88 88 88 91 90 85 76 77 74 78 79 71 68 67 65 62 56 54 49 46 45 43 40 39 38 36 34 32 29 26 23 21
87 88 91 95 96 96 92 93 96 96 96 94 93 93 96 95 93 88 86 81 78 76 76 75 69 66 59 55 53 49 47 45 43 41 39 37 36 34 31 29 26 23 21 21

GFSNGP_prec_cthk_108.txt.gz
RH
41 37 33 27 24 25 52 52 65 65 68 57 62 69 78 82 85 82 78 76 69 77 77 84 75 69 59 47 42 39 41 44 47 49 47 49 50 52 59 68 66 65 67 72
42 38 33 32 27 30 36 50 39 47 55 63 70 62 62 72 80 83 86 84 73 74 75 79 76 75 73 66 53 47 47 50 49 51 53 52 53 54 55 57 59 62 63 63
43 41 59 50 28 27 21 40 44 47 49 64 68 68 71 71 77 87 83 79 78 76 74 70 69 70 75 75 73 61 54 56 55 54 55 56 59 60 59 56 57 55 56 59
64 68 70 32 39 44 38 28 44 52 63 68 64 67 74 82 72 78 73 74 73 73 70 67 68 69 74 78 80 79 67 62 62 59 58 59 64 63 63 62 60 59 63 68
67 71 52 53 55 72 67 39 60 65 69 65 59 71 75 77 72 68 63 63 66 68 69 65 64 68 70 75 84 87 84 76 70 67 63 65 66 65 66 64 66 67 69 69
68 76 88 69 72 80 86 67 72 79 72 69 70 76 76 72 67 61 59 54 59 62 64 60 66 71 76 75 73 81 82 82 79 74 72 74 75 73 73 76 76 80 83 82
72 83 69 62 66 71 95 92 83 73 75 82 80 75 71 71 63 58 58 57 55 53 61 62 64 70 75 79 75 81 84 84 88 84 81 83 80 80 84 86 87 86 87 90
73 84 76 64 73 76 83 78 77 77 68 64 63 64 70 65 62 56 57 51 50 47 56 65 65 70 75 80 85 88 91 86 91 90 91 88 86 86 87 88 91 91 91 95
58 56 59 74 77 86 84 74 64 62 57 56 53 59 62 66 65 59 58 57 52 47 47 60 67 69 74 82 86 89 91 90 93 94 96 94 95 98 97 97 96 98 96 96
72 68 66 76 79 82 85 73 69 69 66 58 56 56 54 55 60 61 64 63 57 58 52 55 61 68 69 72 76 79 80 80 83 86 90 90 93 94 91 94 91 93 94 97
94 96 95 85 86 81 76 71 67 72 65 66 63 62 62 62 67 63 62 61 59 61 63 61 57 60 67 72 73 73 76 78 77 79 84 87 91 96 96 95 93 98 97 93
97 98 95 88 79 74 72 71 72 77 76 71 67 69 70 66 67 63 61 62 64 67 66 68 71 65 62 63 66 68 69 69 68 69 79 85 91 93 94 93 94 96 97 96
83 80 81 81 83 79 74 81 82 74 75 72 82 85 82 75 73 69 69 70 76 79 74 67 75 75 73 72 71 70 70 68 69 70 78 83 79 82 86 97 90 97 96 90
78 79 86 84 81 83 84 85 81 77 67 72 81 86 89 85 84 80 77 82 85 84 80 73 75 78 79 77 77 76 76 79 82 81 82 82 86 92 97 97 92 93 85 80
84 84 87 85 86 87 89 92 82 74 67 61 67 76 83 86 90 89 85 87 86 88 89 86 81 82 85 86 88 89 90 89 90 91 91 91 92 97 97 93 83 77 75 70
88 85 84 85 85 86 84 81 72 68 67 57 59 62 76 84 85 92 95 95 95 94 95 92 90 95 95 95 94 98 97 97 97 97 97 97 96 89 74 68 66 64 60 53
79 81 80 80 78 77 75 73 71 68 68 63 57 56 59 76 86 91 97 97 96 96 96 95 96 96 97 97 97 97 97 96 97 97 93 75 65 64 65 64 57 49 44 43
79 78 76 73 70 69 68 70 70 68 65 66 64 59 58 64 74 85 94 97 97 97 97 97 97 97 97 97 97 97 97 96 87 75 70 67 64 60 53 45 43 41 40 38
73 72 72 71 69 66 64 64 67 69 68 69 69 63 60 60 66 76 81 82 88 95 96 97 97 97 97 97 97 96 86 73 65 62 58 55 52 49 44 43 42 40 38 35
73 71 69 68 67 65 63 62 62 65 68 70 70 70 66 62 61 65 73 73 79 84 94 96 97 97 96 92 83 74 67 64 62 61 56 53 49 44 43 42 41 39 37 34
74 73 71 71 71 71 67 63 60 60 64 70 70 72 72 68 64 62 64 67 73 78 85 92 97 91 84 79 77 74 70 65 59 56 54 50 45 43 44 43 40 39 36 33
77 75 74 74 76 76 75 72 69 65 65 70 73 75 76 75 71 68 69 72 79 80 84 90 94 87 81 73 67 63 58 54 53 52 50 46 44 44 43 42 40 38 35 34
84 81 83 85 84 83 83 84 80 76 71 72 74 76 78 78 75 72 73 75 79 81 88 90 80 75 70 68 64 58 58 62 60 54 53 54 50 46 44 42 40 37 35 35
84 83 83 86 88 90 89 90 93 90 84 80 77 78 81 82 80 78 79 78 76 80 72 73 77 78 75 75 76 69 60 57 61 56 48 45 45 45 45 42 39 38 36 34
78 80 81 84 87 89 92 94 95 96 95 93 92 91 90 87 84 83 82 81 80 75 73 69 65 69 77 70 68 69 64 57 56 55 54 50 46 45 44 41 39 37 35 33
81 81 82 83 85 88 93 96 97 97 98 98 97 96 95 94 92 90 90 90 81 71 68 72 70 63 67 70 67 64 60 57 56 55 52 48 46 43 41 40 38 36 34 32
85 84 83 85 87 88 95 97 97 97 97 97 98 98 98 97 95 94 92 90 87 80 75 74 75 77 73 68 67 66 61 56 52 48 47 46 44 41 40 37 35 33 31 29

GFSNGP_prec_cthk_111.txt.gz
RH
48 51 44 42 47 50 51 46 48 31 43 41 46 66 63 70 73 79 95 95 93 81 80 83 84 80 77 63 51 48 48 47 47 47 47 47 49 52 58 64 68 72 70 68
56 50 50 50 45 38 34 28 26 24 30 37 36 51 58 74 82 83 95 97 93 89 83 84 88 86 83 73 62 50 50 53 54 53 51 50 50 52 54 56 60 66 66 70
44 43 46 40 22 27 24 26 25 26 20 45 44 47 65 67 89 85 89 91 88 86 81 82 84 89 85 81 78 66 54 55 57 61 60 56 52 52 57 57 55 56 57 60
51 47 53 23 27 29 40 31 35 33 23 47 55 58 71 73 91 86 87 90 84 79 87 82 86 86 87 87 82 81 76 63 61 63 64 64 60 58 58 58 59 58 57 56
61 54 31 26 32 54 72 67 57 33 36 50 63 67 78 83 92 91 85 84 79 70 76 84 81 80 80 85 90 87 83 86 78 71 68 66 68 63 61 62 65 63 60 62
75 68 54 29 63 65 73 91 77 65 75 74 73 83 82 87 91 90 87 77 71 65 66 69 80 83 82 82 85 88 81 86 90 86 81 76 73 74 70 68 70 71 71 72
90 76 48 41 63 59 84 97 87 83 81 76 78 81 85 86 86 86 81 76 68 67 60 58 70 78 83 86 84 84 79 84 89 91 92 90 84 81 79 78 78 79 81 80
97 81 67 60 65 85 90 85 85 84 82 75 79 83 87 82 71 71 72 71 66 65 61 56 59 70 79 88 92 92 87 86 88 94 96 97 93 90 88 85 83 84 88 87
85 70 61 71 78 86 94 84 81 79 82 84 79 78 77 68 62 65 63 60 59 61 61 57 52 61 68 74 87 92 90 92 96 95 97 97 97 96 96 92 92 89 90 92
78 71 67 64 68 88 96 91 86 80 80 79 79 71 73 67 65 65 57 54 57 60 62 57 56 53 65 68 73 82 90 87 87 90 91 90 89 91 95 98 94 98 97 99
96 97 87 83 75 78 82 85 82 78 76 81 82 67 69 71 69 61 58 60 58 62 63 61 60 58 57 66 70 74 75 79 81 85 86 85 87 88 89 90 92 91 93 95
98 95 98 96 91 90 85 84 89 88 85 74 69 74 76 74 71 68 65 60 61 66 65 68 67 66 62 60 65 70 73 77 77 76 74 76 81 78 82 86 85 83 86 98
91 89 93 96 92 90 89 90 89 87 80 70 77 85 87 83 77 73 71 66 67 67 67 70 72 73 68 67 69 69 69 69 69 70 73 73 75 73 80 86 85 96 80 78
85 87 92 94 95 95 98 97 93 89 84 82 75 77 78 81 79 79 80 78 74 74 73 76 77 75 74 71 76 77 77 76 78 77 78 78 79 78 80 78 82 95 88 84
92 93 95 93 93 93 93 92 85 82 69 72 70 68 71 76 79 84 87 89 85 82 78 79 79 79 75 76 74 78 82 83 82 81 84 85 85 84 88 92 95 89 77 77
87 87 89 89 88 87 87 86 82 84 73 68 63 63 67 69 75 82 89 91 87 86 86 87 88 88 88 84 81 82 88 90 87 89 93 95 92 96 97 95 89 83 76 67
87 88 89 88 84 82 81 78 76 76 73 69 67 63 58 60 72 86 95 97 94 93 93 95 93 93 94 93 92 94 96 97 95 96 95 96 93 81 75 76 72 64 55 52
81 81 80 80 78 74 72 71 70 69 69 70 70 67 63 60 64 72 91 95 95 97 98 96 96 97 94 96 95 96 96 97 97 93 86 82 81 76 68 63 57 53 49 44
74 72 71 70 70 70 68 66 65 65 67 68 67 67 68 65 62 64 78 83 85 82 95 97 96 97 97 96 97 97 96 92 86 83 76 69 65 62 57 53 51 44 42 41
73 71 70 68 67 66 64 65 63 61 60 61 65 68 69 70 68 65 65 72 78 77 82 92 97 96 97 96 96 90 78 71 70 68 67 63 60 55 52 47 42 41 41 43
73 74 72 69 67 68 70 68 68 64 62 59 59 65 70 72 73 73 68 66 68 69 75 80 86 90 96 89 80 77 76 75 71 65 60 54 53 49 45 42 43 44 43 43
74 74 73 71 71 72 73 76 74 72 68 65 65 65 68 74 75 77 74 70 70 70 75 79 81 79 77 75 74 69 65 63 57 53 52 50 46 45 44 45 47 46 45 45
76 77 78 79 78 78 80 81 81 80 79 78 73 70 70 72 75 78 79 79 78 76 78 79 79 73 69 69 67 66 63 57 56 59 56 55 56 55 53 49 46 45 45 45
70 72 72 74 77 78 80 82 84 87 86 86 86 81 77 76 77 78 80 84 83 81 77 71 67 66 68 64 65 71 75 67 61 61 65 57 54 52 49 49 48 46 46 44
70 69 68 70 73 75 79 82 83 88 92 92 91 92 88 87 87 86 89 91 90 80 71 73 70 69 75 71 62 61 67 67 61 58 59 58 56 55 53 50 48 47 44 42
73 72 71 70 72 75 78 82 85 88 94 96 95 96 96 96 96 97 96 94 91 87 78 74 77 72 65 71 71 63 60 61 60 57 57 58 57 52 48 48 47 45 43 42
86 84 82 79 78 79 81 85 87 89 96 98 98 97 98 98 98 98 98 93 88 87 87 80 76 78 76 69 66 66 67 67 63 58 56 53 50 49 48 47 45 43 42 40

GFSNGP_prec_cthk_114.txt.gz
RH
61 60 57 53 56 59 50 43 56 34 35 26 19 23 34 39 48 59 74 78 92 97 91 93 90 88 84 85 78 54 45 48 49 50 55 58 60 59 59 61 66 70 69 76
56 58 60 62 54 50 38 33 41 36 31 16 16 17 32 40 48 58 74 78 90 94 93 97 89 94 91 86 80 58 48 49 52 51 54 57 60 60 60 60 62 65 70 74
53 50 52 53 38 36 32 30 28 28 16 18 18 20 41 47 63 63 78 83 94 94 93 94 96 96 94 88 85 67 55 51 54 55 55 55 58 61 61 61 59 60 62 66
54 53 58 27 30 29 29 22 26 28 22 29 27 35 52 56 70 76 87 84 88 93 92 90 96 96 98 93 87 79 64 58 57 59 58 59 61 62 61 64 63 61 60 61
62 58 34 26 22 24 39 36 44 46 50 46 35 40 57 61 73 85 86 84 85 88 85 88 91 96 92 93 91 86 82 72 64 61 60 60 63 67 66 66 67 66 66 64
82 84 79 47 33 38 40 57 68 85 80 63 48 56 66 78 83 85 84 85 87 86 87 88 88 94 89 92 95 92 90 87 81 77 67 63 65 70 71 68 68 71 72 71
95 95 76 49 35 45 72 67 94 94 92 89 90 85 82 84 83 84 85 85 82 82 82 80 81 82 94 96 96 95 95 91 87 88 86 83 74 75 75 73 72 74 74 76
97 94 81 57 71 77 82 92 97 97 96 91 89 92 92 83 79 79 79 76 75 77 74 74 68 70 84 92 99 99 99 94 94 92 91 91 91 88 83 80 80 80 79 80
95 84 68 72 81 83 88 98 96 91 87 91 92 89 82 78 78 77 66 60 61 62 65 68 70 65 72 86 97 94 96 96 97 96 93 94 98 98 95 90 90 90 90 91
88 83 80 69 77 85 91 97 94 91 89 89 87 86 78 81 77 80 70 58 58 51 55 63 67 66 62 72 85 90 93 98 93 96 96 97 96 97 98 96 95 98 95 95
98 95 94 82 79 79 87 93 91 90 87 83 75 74 74 78 78 75 68 64 59 52 55 60 63 65 64 64 74 80 80 86 93 97 92 89 94 94 92 92 92 93 89 91
98 98 98 96 98 96 96 98 98 93 86 76 74 80 82 81 80 77 76 74 68 64 61 63 61 62 64 64 65 69 74 78 84 83 84 87 89 90 91 90 86 89 98 88
98 98 99 98 99 99 99 100 99 97 95 86 78 79 81 82 83 80 81 74 71 70 69 68 68 63 66 67 65 66 68 72 76 81 84 84 83 81 76 83 94 83 92 77
95 95 92 90 94 96 94 97 97 94 90 83 82 81 79 84 83 82 79 78 77 75 75 71 70 71 75 75 71 68 67 71 78 82 81 79 78 79 80 79 78 79 91 94
82 88 87 88 87 90 92 94 92 92 90 90 80 79 78 76 80 82 83 84 81 79 79 79 78 77 77 77 78 79 80 80 80 81 82 81 81 81 83 84 84 82 88 96
79 82 85 86 87 88 89 88 88 88 82 84 82 75 72 72 75 77 86 93 94 85 81 81 80 79 81 85 84 81 83 85 85 87 88 87 88 87 86 90 93 91 86 78
85 84 83 83 83 82 83 83 83 83 82 79 76 75 73 68 68 73 88 91 94 94 91 88 92 91 91 93 93 94 92 88 88 88 95 94 93 93 97 97 92 81 72 66
82 82 79 78 77 78 78 77 74 76 76 75 73 72 73 71 65 66 77 92 97 97 95 94 93 93 95 96 97 96 97 96 95 95 96 95 96 94 88 78 72 67 64 61
74 73 72 71 68 67 67 70 70 67 68 66 68 71 71 71 72 68 69 73 85 89 88 90 96 96 96 96 96 97 97 97 97 97 95 92 83 76 67 64 61 57 53 49
71 71 71 69 69 66 65 67 68 66 65 64 64 63 66 72 72 73 70 70 70 74 77 79 91 97 97 96 97 97 96 94 90 84 78 75 70 66 63 57 52 46 42 42
66 67 68 69 69 67 66 67 70 71 70 69 65 62 62 64 72 75 77 75 72 71 72 71 74 81 88 93 91 84 80 82 77 74 70 64 58 55 53 50 47 44 44 46
69 70 72 72 72 71 71 72 75 78 77 74 71 68 66 66 68 71 76 78 79 76 74 73 74 75 73 71 69 69 73 74 70 65 61 59 56 52 48 46 44 45 46 49
71 73 72 70 69 70 73 76 79 82 83 82 81 79 77 75 71 70 73 77 80 82 83 80 77 75 75 71 65 61 58 57 55 56 56 54 52 52 49 51 53 52 48 48
70 70 70 66 65 67 71 74 76 78 80 82 84 86 86 85 84 78 74 79 81 82 86 80 77 73 76 72 70 63 60 59 58 61 62 63 64 57 54 53 51 54 53 50
70 68 66 64 64 64 65 68 72 75 79 81 84 88 90 90 90 90 87 85 86 86 82 83 76 74 73 71 65 67 66 63 64 62 59 54 56 59 58 56 56 53 49 48
75 75 73 71 70 70 69 69 69 72 76 83 86 89 94 93 93 95 94 92 88 89 90 84 90 91 81 73 71 70 69 64 63 61 58 55 58 59 56 54 52 50 49 48
86 87 89 90 89 86 83 78 76 76 78 84 88 90 95 97 97 96 96 97 97 91 91 92 83 82 87 81 73 69 67 66 66 64 59 55 56 56 55 54 52 50 50 48